Tacoma, WA

2:52 AM PST on February 09, 2016 (GMT -0800)
McChord Air Force Base

Weather History for KTCM - September, 2012

Change the Weather History Date:

Sunday, September 2, 2012

  Actual Average Record
Temperature  
Mean Temperature 55 °F -  
Max Temperature 69 °F 71 °F 96 °F (1988)
Min Temperature 41 °F 48 °F 37 °F (1960)
Degree Days  
Heating Degree Days 10    
Growing Degree Days 5 (Base 50)    
Moisture  
Dew Point 45 °F    
Average Humidity 82    
Maximum Humidity 100    
Minimum Humidity 44    
Precipitation  
Precipitation 0.00 in - - ()
Sea Level Pressure  
Sea Level Pressure 30.19 in    
Wind  
Wind Speed 2 mph (South)    
Max Wind Speed 9 mph    
Max Gust Speed -    
Visibility 6 miles    
Events Fog , Rain    
Averages and records for this station are not official NWS values.
T = Trace of Precipitation, MM = Missing Value Source: NWS Daily Summary

Daily Weather History Graph

Daily Weather History Graph

Search for Another Location

Airport or City:

Trip Planner

Search our weather history database for the weather conditions in past years. The results will help you decide how hot, cold, wet, or windy it might be!

Date:

Astronomy

Sep. 02, 2012 Rise Set
Actual Time 6:31 AM PDT 7:46 PM PDT
Civil Twilight 5:59 AM PDT 8:18 PM PDT
Nautical Twilight 5:21 AM PDT 8:55 PM PDT
Astronomical Twilight 4:41 AM PDT 9:36 PM PDT
Moon 8:21 PM PDT (9/2) 8:58 AM PDT (9/2)
Length of Visible Light 14h 18m
Length of Day
13h 15m
Waning Gibbous, 95% of the Moon is Illuminated
Sep 2
Waning Gibbous
Sep 8
Last Quarter
Sep 15
New
Sep 22
First Quarter
Sep 29
Full

Hourly Weather History & Observations

Time (PDT) Temp. Windchill Dew Point Humidity Pressure Visibility Wind Dir Wind Speed Gust Speed Precip Events Conditions
12:58 AM 48.4 °F - 45.5 °F 90% 30.17 in 10.0 mi South 2.3 mph - N/A   Clear
1:58 AM 48.0 °F - 45.5 °F 91% 30.18 in 10.0 mi East 1.2 mph - N/A   Clear
2:58 AM 46.4 °F 45.2 °F 44.2 °F 92% 30.18 in 10.0 mi South 3.5 mph - N/A   Clear
3:38 AM 46.4 °F 45.2 °F 42.8 °F 87% 30.18 in 2.0 mi South 3.5 mph - N/A   Clear
3:43 AM 46.4 °F 45.2 °F 44.6 °F 93% 30.18 in 1.0 mi SSW 3.5 mph - N/A   Clear
3:48 AM 44.6 °F 43.1 °F 42.8 °F 93% 30.18 in 1.2 mi South 3.5 mph - N/A   Clear
3:53 AM 46.4 °F - 42.8 °F 87% 30.18 in 1.0 mi South 2.3 mph - N/A   Clear
3:58 AM 46.4 °F - 44.6 °F 93% 30.19 in 0.8 mi South 1.2 mph - N/A   Clear
4:03 AM 46.4 °F - 44.6 °F 93% 30.18 in 1.2 mi Calm Calm - N/A   Clear
4:08 AM 46.4 °F - 44.6 °F 93% 30.18 in 2.5 mi Calm Calm - N/A   Clear
4:13 AM 46.4 °F - 44.6 °F 93% 30.18 in 8.0 mi Calm Calm - N/A   Clear
4:33 AM 44.6 °F - 42.8 °F 93% 30.18 in 2.5 mi Calm Calm - N/A   Clear
4:38 AM 44.6 °F - 44.6 °F 100% 30.18 in 2.0 mi Calm Calm - N/A   Clear
4:43 AM 44.6 °F - 42.8 °F 93% 30.18 in 2.5 mi Calm Calm - N/A   Partly Cloudy
4:48 AM 44.6 °F - 42.8 °F 93% 30.18 in 4.0 mi Calm Calm - N/A   Scattered Clouds
4:53 AM 44.6 °F - 42.8 °F 93% 30.18 in 8.0 mi Calm Calm - N/A   Mostly Cloudy
4:58 AM 43.5 °F - 42.4 °F 96% 30.19 in 3.0 mi Calm Calm - N/A   Mostly Cloudy
5:03 AM 42.8 °F - 42.8 °F 100% 30.18 in 1.2 mi Calm Calm - N/A   Mostly Cloudy
5:08 AM 44.6 °F - 42.8 °F 93% 30.18 in 0.8 mi Calm Calm - N/A   Mist
5:13 AM 44.6 °F - 42.8 °F 93% 30.18 in 0.5 mi Calm Calm - N/A Fog Fog
5:23 AM 44.6 °F - 42.8 °F 93% 30.18 in 0.8 mi SSE 1.2 mph - N/A   Mist
5:28 AM 44.6 °F - 42.8 °F 93% 30.18 in 0.8 mi SSE 1.2 mph - N/A   Clear
5:33 AM 44.6 °F - 42.8 °F 93% 30.18 in 0.5 mi Calm Calm - N/A Fog Fog
5:43 AM 44.6 °F - 42.8 °F 93% 30.18 in 0.8 mi East 1.2 mph - N/A   Clear
5:48 AM 44.6 °F - 42.8 °F 93% 30.18 in 1.0 mi Calm Calm - N/A   Mist
5:53 AM 42.8 °F - 41.0 °F 93% 30.18 in 3.0 mi Calm Calm - N/A   Partly Cloudy
5:58 AM 42.1 °F - 40.5 °F 94% 30.19 in 6.0 mi South 1.2 mph - N/A   Partly Cloudy
6:03 AM 41.0 °F - 39.2 °F 93% 30.18 in 2.5 mi SSE 2.3 mph - N/A   Scattered Clouds
6:08 AM 41.0 °F - 39.2 °F 93% 30.18 in 2.5 mi SE 2.3 mph - N/A   Scattered Clouds
6:13 AM 41.0 °F - 41.0 °F 100% 30.18 in 7.0 mi SSE 2.3 mph - N/A   Partly Cloudy
6:43 AM 44.6 °F 43.1 °F 42.8 °F 93% 30.19 in 10.0 mi South 3.5 mph - N/A   Mostly Cloudy
6:58 AM 43.7 °F 42.1 °F 42.1 °F 94% 30.22 in 10.0 mi South 3.5 mph - N/A   Overcast
7:28 AM 46.4 °F - 44.6 °F 93% 30.20 in 10.0 mi SSE 2.3 mph - N/A   Overcast
7:58 AM 49.8 °F - 47.5 °F 92% 30.22 in 10.0 mi Calm Calm - N/A   Overcast
8:58 AM 53.4 °F - 48.2 °F 82% 30.22 in 10.0 mi SW 2.3 mph - N/A   Overcast
9:27 AM 53.6 °F - 48.2 °F 82% 30.21 in 10.0 mi West 2.3 mph - N/A Rain Light Rain
9:37 AM 55.4 °F - 48.2 °F 77% 30.21 in 10.0 mi West 2.3 mph - N/A   Overcast
9:58 AM 55.6 °F - 48.2 °F 76% 30.22 in 10.0 mi WSW 3.5 mph - 0.00 in   Overcast
9:59 AM 55.4 °F - 48.2 °F 77% 30.21 in 10.0 mi SW 2.3 mph - N/A Rain Light Rain
10:08 AM 55.4 °F - 48.2 °F 77% 30.21 in 10.0 mi South 2.3 mph - N/A   Overcast
10:58 AM 58.3 °F - 48.4 °F 70% 30.21 in 10.0 mi WSW 3.5 mph - 0.00 in   Scattered Clouds
11:58 AM 61.3 °F - 48.9 °F 64% 30.22 in 10.0 mi NNW 1.2 mph - N/A   Partly Cloudy
12:18 PM 62.6 °F - 50.0 °F 63% 30.20 in 10.0 mi North 6.9 mph - N/A   Light Drizzle
12:26 PM 62.6 °F - 50.0 °F 63% 30.20 in 10.0 mi Variable 6.9 mph - N/A   Partly Cloudy
12:58 PM 62.6 °F - 49.6 °F 63% 30.22 in 10.0 mi NW 9.2 mph - 0.00 in   Clear
1:58 PM 64.8 °F - 48.9 °F 56% 30.20 in 10.0 mi North 5.8 mph - N/A   Clear
2:58 PM 67.5 °F - 49.3 °F 52% 30.19 in 10.0 mi Variable 3.5 mph - N/A   Clear
3:58 PM 68.0 °F - 48.9 °F 50% 30.17 in 10.0 mi Variable 5.8 mph - N/A   Clear
4:58 PM 68.9 °F - 48.4 °F 48% 30.17 in 10.0 mi SW 5.8 mph - N/A   Clear
5:58 PM 69.4 °F - 47.7 °F 46% 30.17 in 10.0 mi West 4.6 mph - N/A   Clear
6:58 PM 68.7 °F - 48.0 °F 48% 30.15 in 10.0 mi NW 3.5 mph - N/A   Clear
7:58 PM 64.0 °F - 41.9 °F 44% 30.15 in 10.0 mi North 1.2 mph - N/A   Clear
8:58 PM 63.1 °F - 45.1 °F 52% 30.15 in 10.0 mi Calm Calm - N/A   Clear
9:58 PM 53.4 °F - 46.0 °F 76% 30.15 in 10.0 mi East 1.2 mph - N/A   Clear
10:58 PM 51.8 °F - 44.4 °F 76% 30.17 in 10.0 mi South 3.5 mph - N/A   Clear
11:58 PM 50.4 °F - 44.8 °F 81% 30.17 in 10.0 mi East 1.2 mph - N/A   Clear